Find Starlink 4784

NORAD ID: 53839 Int'l Des: 2022-114 Owner: SPXS Country: US Constellation: starlink operational
LEOCIRCULAR

Current View

Loading 3D Globe...

About Starlink 4784

Description loading...

Upcoming Passes

Passes for default location (London). Set your location on the main map for personalized predictions.

Altitude History

Loading altitude history...

Two-Line Element Set

1 53839U 22114X 26150.79766580 -.00000982 00000-0 -43588-4 0 9993
2 53839 53.1958 285.7607 0001599 90.0505 270.0670 15.08838133205367
Epoch: May 30, 2026 • Age: 13 hours

Current Status

Altitude 541.0 km
Velocity 7.60 km/s
Sub-Earth Point 31.49°N, 58.99°W
Launch Date Sep 19, 2022
Age 3.6 years
Type internet

Technical Details

Classification Payload
Mass 305.00 kg
Dry Mass 290.00 kg
Total Mass 305.00 kg
Length 0.20 m
Diameter 2.80 m
Span 9.00 m
Shape Box + pan
Manufacturer SPXS
Bus Type Starlink
Phase Status In Orbit
Owner/State SPXS/US

Most Searched